Weather in Ismentsy

Russia / Mari El Republic     55°58′37″N   48°13′08″E
temp.,
°C
wind,
m/s
gust,
m/s
humid.,
%
clouds,
%
prec.,
mm/h
press.,
hPa
HPBL,
m
27 february, sat
sat2700:00−11se71394100 4.8 998556
03:00−11ese5995100 5.8 997294
06:00−11e479599 0.5 996248
09:00−10ne469499 1.0 997315
12:00−10ne5791100 0.4 998570
15:00−10nne5891100 0.7 1001715
18:00−13n51191100 0.2 1004566
21:00−15nnw5109399 0.2 1006306
28 february, sun
sun2800:00−17nnw4109688 0.0 1006244
03:00−18nnw5109586 0.0 1008270
06:00−20nnw499756 0.0 1009219
09:00−18nnw589448 0.0 1010284
12:00−13nnw589181 0.0 1011443
15:00−12nnw588890 0.0 1012554
18:00−17n359486 0.0 101490
21:00−19nnw349746 0.0 101757
1 march, mon
mon100:00−21nnw34970 0.0 101844
03:00−22nnw33970 0.0 102029
06:00−23nnw23986 0.0 102124
09:00−19nw23946 0.0 1022155
12:00−13wnw238664 0.0 1022371
15:00−11wsw349081 0.0 1021385
18:00−16sw339584 0.0 101952
21:00−14sw379592 0.0 1017171
2 march, tue
tue200:00−11ssw41095100 0.0 1013290
03:00−9ssw61295100 0.4 1009393
06:00−7ssw51295100 1.3 1004525
09:00−3sw51196100 2.7 1001587
12:000wsw59100100 1.4 999541
15:000wnw4799100 2.4 998403
18:00−1w379699 0.1 998264
21:00−1nnw51192100 1.1 999642
3 march, wed
wed300:00−6nw4109462 0.0 1000218
03:00−7nw379753 0.0 1001140
06:00−6nw379687 0.1 1001230
09:00−4nw479593 0.2 1003414
12:00−2nnw579198 0.3 1004752
15:00−2nnw6109199 0.6 1006883
18:00−7nw4108963 0.1 1008196
21:00−8nw4119345 0.1 1010297